Location: Équennes
(49.7375°N, 1.9622°E)
Time: 00:48:04
(UTC+00:00)

NOAA 15 - Pass Details

Date: 28 January 2023
Orbit: 796 x 812 km, 98.6° (Epoch: 31 March)

Event Time Altitude Azimuth Distance (km) Brightness Sun altitude
Rises 18:27:29 0° 160° (SSE) 3,291 7.7 -17.3°
Reaches altitude 10° 18:29:48 10° 160° (SSE) 2,367 6.9 -17.7°
Maximum altitude 18:35:02 82° 73° (ENE) 815 4.5 -18.5°
Drops below altitude 10° 18:40:20 10° 347° (NNW) 2,392 7.1 -19.3°
Sets 18:42:40 0° 346° (NNW) 3,330 7.9 -19.7°
